Location: Kermapucano
(48.0667°N, 3.3000°W)
Time: 20:51:14
(UTC+00:00)

Cosmos 923 Rocket - Pass Details

Date: 29 November 2020
Orbit: 757 x 786 km, 74.0° (Epoch: 27 January)

Event Time Altitude Azimuth Distance (km) Brightness Sun altitude
Exits shadow 05:34:28 42° 287° (WNW) 1,108 4.3 -20.3°
Maximum altitude 05:35:28 47° 255° (WSW) 1,027 4.2 -20.1°
Drops below altitude 10° 05:40:31 10° 183° (S) 2,329 6.6 -19.3°
Sets 05:42:58 0° 177° (S) 3,256 7.4 -18.9°
